| time (UTC) | temp F | wind direction | speed MPH | gust MPH | rain 1hr in | rain 24hr in | rain mn in | humidity % | barometer mb |
| 20260508014417 | 84 | 264 | 2.0 | 2.0 | 0.00 | 0.00 | 0.00 | 44 | 1012.4 |
| 20260508013912 | 85 | 256 | 4.0 | 5.0 | 0.00 | 0.00 | 0.00 | 43 | 1012.4 |
| 20260508013408 | 85 | 262 | 1.0 | 2.0 | 0.00 | 0.00 | 0.00 | 44 | 1012.3 |
| 20260508012906 | 85 | 266 | 4.0 | 5.0 | 0.00 | 0.00 | 0.00 | 43 | 1012.4 |
| 20260508012403 | 85 | 263 | 1.0 | 2.0 | 0.00 | 0.00 | 0.00 | 42 | 1012.2 |
| 20260508011901 | 85 | 288 | 4.0 | 5.0 | 0.00 | 0.00 | 0.00 | 42 | 1012.3 |
| 20260508011359 | 86 | 261 | 5.0 | 6.0 | 0.00 | 0.00 | 0.00 | 41 | 1012.3 |
| 20260508010855 | 86 | 263 | 3.0 | 4.0 | 0.00 | 0.00 | 0.00 | 41 | 1012.4 |
| 20260508010353 | 86 | 266 | 3.0 | 5.0 | 0.00 | 0.00 | 0.00 | 41 | 1012.3 |
| 20260508005850 | 86 | 280 | 2.0 | 4.0 | 0.00 | 0.00 | 0.00 | 41 | 1012.6 |
| 20260508005346 | 86 | 262 | 3.0 | 5.0 | 0.00 | 0.00 | 0.00 | 40 | 1012.4 |
| 20260508004843 | 86 | 271 | 2.0 | 5.0 | 0.00 | 0.00 | 0.00 | 42 | 1012.6 |
| 20260508004339 | 87 | 238 | 2.0 | 4.0 | 0.00 | 0.00 | 0.00 | 41 | 1012.5 |
| 20260508003835 | 86 | 282 | 3.0 | 4.0 | 0.00 | 0.00 | 0.00 | 41 | 1012.4 |
| 20260508003333 | 86 | 249 | 5.0 | 6.0 | 0.00 | 0.00 | 0.00 | 40 | 1012.6 |
| 20260508002830 | 86 | 274 | 4.0 | 6.0 | 0.00 | 0.00 | 0.00 | 39 | 1012.6 |
| 20260508002326 | 86 | 247 | 4.0 | 6.0 | 0.00 | 0.00 | 0.00 | 40 | 1012.6 |
| 20260508001823 | 87 | 249 | 4.0 | 6.0 | 0.00 | 0.00 | 0.00 | 40 | 1012.9 |
| 20260508001319 | 86 | 304 | 3.0 | 4.0 | 0.00 | 0.00 | 0.00 | 41 | 1012.6 |
| 20260508000815 | 86 | 302 | 2.0 | 2.0 | 0.00 | 0.00 | 0.00 | 41 | 1012.8 |
| 20260508000312 | 86 | 264 | 4.0 | 5.0 | 0.00 | 0.00 | 0.00 | 41 | 1012.8 |
| 20260507235808 | 86 | 266 | 4.0 | 5.0 | 0.00 | 0.00 | 0.00 | 40 | 1012.7 |
| 20260507235307 | 86 | 263 | 4.0 | 5.0 | 0.00 | 0.00 | 0.00 | 41 | 1012.8 |
| 20260507234803 | 87 | 282 | 4.0 | 6.0 | 0.00 | 0.00 | 0.00 | 41 | 1012.8 |
| 20260507234259 | 87 | 260 | 2.0 | 4.0 | 0.00 | 0.00 | 0.00 | 40 | 1013.1 |
| 20260507233755 | 86 | 263 | 2.0 | 4.0 | 0.00 | 0.00 | 0.00 | 41 | 1013.0 |
| 20260507233253 | 86 | 250 | 5.0 | 6.0 | 0.00 | 0.00 | 0.00 | 40 | 1013.0 |
| 20260507232751 | 85 | 257 | 3.0 | 5.0 | 0.00 | 0.00 | 0.00 | 42 | 1013.1 |
| 20260507232247 | 86 | 248 | 6.0 | 7.0 | 0.00 | 0.00 | 0.00 | 40 | 1013.2 |
| 20260507231744 | 85 | 243 | 3.0 | 5.0 | 0.00 | 0.00 | 0.00 | 41 | 1013.2 |
| 20260507231241 | 86 | 251 | 3.0 | 4.0 | 0.00 | 0.00 | 0.00 | 41 | 1013.0 |
| 20260507230737 | 86 | 273 | 5.0 | 6.0 | 0.00 | 0.00 | 0.00 | 41 | 1013.1 |
| 20260507230235 | 86 | 247 | 3.0 | 4.0 | 0.00 | 0.00 | 0.00 | 39 | 1013.3 |
| 20260507225734 | 85 | 289 | 2.0 | 2.0 | 0.00 | 0.00 | 0.00 | 41 | 1013.4 |
| 20260507225231 | 85 | 254 | 4.0 | 5.0 | 0.00 | 0.00 | 0.00 | 40 | 1013.5 |
| 20260507224727 | 86 | 269 | 3.0 | 4.0 | 0.00 | 0.00 | 0.00 | 39 | 1013.5 |
| 20260507224224 | 85 | 348 | 2.0 | 2.0 | 0.00 | 0.00 | 0.00 | 39 | 1013.6 |
| 20260507223720 | 84 | 231 | 3.0 | 4.0 | 0.00 | 0.00 | 0.00 | 40 | 1013.6 |
| 20260507223217 | 84 | 253 | 1.0 | 2.0 | 0.00 | 0.00 | 0.00 | 40 | 1013.8 |
| 20260507222714 | 85 | 258 | 3.0 | 5.0 | 0.00 | 0.00 | 0.00 | 39 | 1014.0 |
| 20260507222210 | 84 | 277 | 3.0 | 4.0 | 0.00 | 0.00 | 0.00 | 39 | 1013.8 |
| 20260507221707 | 85 | 247 | 3.0 | 5.0 | 0.00 | 0.00 | 0.00 | 40 | 1013.9 |
| 20260507221203 | 85 | 287 | 1.0 | 1.0 | 0.00 | 0.00 | 0.00 | 40 | 1014.0 |
| 20260507220700 | 85 | 286 | 2.0 | 2.0 | 0.00 | 0.00 | 0.00 | 40 | 1014.3 |
| 20260507220158 | 85 | 254 | 2.0 | 2.0 | 0.00 | 0.00 | 0.00 | 39 | 1014.3 |
| 20260507215654 | 84 | 233 | 1.0 | 1.0 | 0.00 | 0.00 | 0.00 | 40 | 1014.4 |
| 20260507215152 | 84 | 39 | 1.0 | 1.0 | 0.00 | 0.00 | 0.00 | 40 | 1014.4 |
| 20260507214649 | 85 | 75 | 1.0 | 2.0 | 0.00 | 0.00 | 0.00 | 38 | 1014.3 |
| 20260507214145 | 84 | 264 | 3.0 | 4.0 | 0.00 | 0.00 | 0.00 | 39 | 1014.5 |
| 20260507213641 | 84 | 260 | 3.0 | 5.0 | 0.00 | 0.00 | 0.00 | 40 | 1014.6 |
| 20260507213138 | 83 | 44 | 1.0 | 2.0 | 0.00 | 0.00 | 0.00 | 39 | 1014.7 |
| 20260507212634 | 83 | 267 | 1.0 | 1.0 | 0.00 | 0.00 | 0.00 | 39 | 1014.6 |
| 20260507212131 | 83 | 249 | 3.0 | 4.0 | 0.00 | 0.00 | 0.00 | 41 | 1015.0 |
| 20260507211628 | 84 | 42 | 1.0 | 1.0 | 0.00 | 0.00 | 0.00 | 41 | 1014.7 |
| 20260507211124 | 84 | 298 | 0.0 | 0.0 | 0.00 | 0.00 | 0.00 | 41 | 1014.9 |
| 20260507210622 | 84 | 178 | 3.0 | 4.0 | 0.00 | 0.00 | 0.00 | 39 | 1015.0 |
| 20260507210118 | 83 | 253 | 4.0 | 5.0 | 0.00 | 0.00 | 0.00 | 38 | 1015.0 |
| 20260507205615 | 83 | 107 | 1.0 | 1.0 | 0.00 | 0.00 | 0.00 | 39 | 1015.1 |
| 20260507205111 | 82 | 242 | 0.0 | 0.0 | 0.00 | 0.00 | 0.00 | 41 | 1015.3 |
| 20260507204607 | 82 | 250 | 2.0 | 2.0 | 0.00 | 0.00 | 0.00 | 41 | 1015.1 |
| 20260507204105 | 82 | 20 | 1.0 | 1.0 | 0.00 | 0.00 | 0.00 | 40 | 1015.1 |
| 20260507203603 | 83 | 240 | 2.0 | 2.0 | 0.00 | 0.00 | 0.00 | 42 | 1015.4 |
| 20260507203100 | 83 | 45 | 2.0 | 2.0 | 0.00 | 0.00 | 0.00 | 40 | 1015.4 |
| 20260507202555 | 82 | 341 | 0.0 | 1.0 | 0.00 | 0.00 | 0.00 | 41 | 1015.6 |
| 20260507202052 | 82 | 234 | 2.0 | 2.0 | 0.00 | 0.00 | 0.00 | 43 | 1015.4 |
| 20260507201547 | 81 | 255 | 4.0 | 6.0 | 0.00 | 0.00 | 0.00 | 46 | 1015.5 |
| 20260507201044 | 81 | 236 | 1.0 | 1.0 | 0.00 | 0.00 | 0.00 | 44 | 1015.7 |
| 20260507200540 | 82 | 37 | 2.0 | 2.0 | 0.00 | 0.00 | 0.00 | 41 | 1015.6 |
| 20260507200036 | 81 | 341 | 2.0 | 4.0 | 0.00 | 0.00 | 0.00 | 42 | 1015.6 |
| 20260507195533 | 81 | 12 | 4.0 | 5.0 | 0.00 | 0.00 | 0.00 | 43 | 1015.8 |
| 20260507195031 | 80 | 241 | 3.0 | 4.0 | 0.00 | 0.00 | 0.00 | 43 | 1015.7 |
| 20260507194527 | 80 | 247 | 3.0 | 4.0 | 0.00 | 0.00 | 0.00 | 46 | 1015.9 |
| 20260507194023 | 80 | 5 | 1.0 | 2.0 | 0.00 | 0.00 | 0.00 | 45 | 1016.1 |
| 20260507193520 | 81 | 273 | 2.0 | 2.0 | 0.00 | 0.00 | 0.00 | 44 | 1015.7 |
| 20260507193017 | 80 | 256 | 4.0 | 5.0 | 0.00 | 0.00 | 0.00 | 43 | 1016.0 |
| 20260507192513 | 79 | 66 | 0.0 | 1.0 | 0.00 | 0.00 | 0.00 | 44 | 1016.0 |
| 20260507192010 | 80 | 262 | 5.0 | 6.0 | 0.00 | 0.00 | 0.00 | 44 | 1016.1 |
| 20260507191506 | 79 | 312 | 1.0 | 1.0 | 0.00 | 0.00 | 0.00 | 45 | 1016.1 |
| 20260507191003 | 78 | 275 | 3.0 | 4.0 | 0.00 | 0.00 | 0.00 | 46 | 1016.4 |
| 20260507190500 | 79 | 337 | 1.0 | 1.0 | 0.00 | 0.00 | 0.00 | 46 | 1016.2 |
| 20260507185959 | 79 | 262 | 3.0 | 4.0 | 0.00 | 0.00 | 0.00 | 45 | 1016.3 |
| 20260507185456 | 79 | 31 | 0.0 | 1.0 | 0.00 | 0.00 | 0.00 | 46 | 1016.2 |
| 20260507184953 | 77 | 241 | 3.0 | 4.0 | 0.00 | 0.00 | 0.00 | 50 | 1016.4 |
| 20260507184451 | 78 | 226 | 2.0 | 2.0 | 0.00 | 0.00 | 0.00 | 49 | 1016.6 |
| 20260507183949 | 78 | 48 | 0.0 | 1.0 | 0.00 | 0.00 | 0.00 | 49 | 1016.9 |
| 20260507183445 | 77 | 336 | 0.0 | 1.0 | 0.00 | 0.00 | 0.00 | 51 | 1016.6 |
| 20260507182942 | 76 | 267 | 1.0 | 2.0 | 0.00 | 0.00 | 0.00 | 52 | 1016.8 |
| 20260507182438 | 77 | 297 | 1.0 | 1.0 | 0.00 | 0.00 | 0.00 | 52 | 1016.8 |
| 20260507181934 | 76 | 247 | 2.0 | 2.0 | 0.00 | 0.00 | 0.00 | 53 | 1016.6 |
| 20260507181430 | 75 | 29 | 1.0 | 1.0 | 0.00 | 0.00 | 0.00 | 51 | 1016.8 |
| 20260507180927 | 76 | 326 | 0.0 | 0.0 | 0.00 | 0.00 | 0.00 | 53 | 1016.9 |
| 20260507180424 | 76 | 238 | 1.0 | 1.0 | 0.00 | 0.00 | 0.00 | 53 | 1016.9 |
| 20260507175920 | 75 | 255 | 2.0 | 2.0 | 0.00 | 0.00 | 0.00 | 53 | 1016.9 |
| 20260507175417 | 74 | 269 | 1.0 | 1.0 | 0.00 | 0.00 | 0.00 | 55 | 1016.8 |
| 20260507174915 | 74 | 248 | 2.0 | 2.0 | 0.00 | 0.00 | 0.00 | 56 | 1017.0 |
| 20260507174412 | 74 | 244 | 2.0 | 2.0 | 0.00 | 0.00 | 0.00 | 56 | 1017.1 |
| 20260507173909 | 74 | 271 | 0.0 | 1.0 | 0.00 | 0.00 | 0.00 | 56 | 1016.9 |
| 20260507173406 | 73 | 254 | 1.0 | 1.0 | 0.00 | 0.00 | 0.00 | 57 | 1017.0 |
| 20260507172902 | 73 | 246 | 0.0 | 1.0 | 0.00 | 0.00 | 0.00 | 56 | 1017.0 |
| 20260507172359 | 73 | 285 | 3.0 | 4.0 | 0.00 | 0.00 | 0.00 | 57 | 1017.2 |
| 20260507171855 | 73 | 234 | 1.0 | 1.0 | 0.00 | 0.00 | 0.00 | 58 | 1017.2 |
| 20260507171352 | 72 | 288 | 3.0 | 4.0 | 0.00 | 0.00 | 0.00 | 58 | 1017.5 |
| 20260507170849 | 73 | 311 | 0.0 | 1.0 | 0.00 | 0.00 | 0.00 | 58 | 1017.2 |
| 20260507170345 | 73 | 327 | 2.0 | 2.0 | 0.00 | 0.00 | 0.00 | 58 | 1017.4 |
| 20260507165842 | 73 | 237 | 2.0 | 2.0 | 0.00 | 0.00 | 0.00 | 57 | 1017.3 |
| 20260507165337 | 72 | 286 | 0.0 | 1.0 | 0.00 | 0.00 | 0.00 | 58 | 1017.4 |
| 20260507164834 | 71 | 327 | 0.0 | 0.0 | 0.00 | 0.00 | 0.00 | 59 | 1017.3 |
| 20260507164331 | 71 | 265 | 1.0 | 2.0 | 0.00 | 0.00 | 0.00 | 58 | 1017.2 |
| 20260507163828 | 70 | 258 | 0.0 | 1.0 | 0.00 | 0.00 | 0.00 | 62 | 1017.3 |
| 20260507163325 | 70 | 280 | 1.0 | 2.0 | 0.00 | 0.00 | 0.00 | 62 | 1017.3 |
| 20260507162821 | 70 | 305 | 1.0 | 2.0 | 0.00 | 0.00 | 0.00 | 62 | 1017.2 |
| 20260507162317 | 69 | 308 | 1.0 | 1.0 | 0.00 | 0.00 | 0.00 | 63 | 1017.3 |
| 20260507161815 | 69 | 320 | 0.0 | 0.0 | 0.00 | 0.00 | 0.00 | 65 | 1017.3 |
| 20260507161311 | 68 | 271 | 3.0 | 4.0 | 0.00 | 0.00 | 0.00 | 65 | 1017.6 |
| 20260507160808 | 68 | 269 | 1.0 | 2.0 | 0.00 | 0.00 | 0.00 | 65 | 1017.4 |
| 20260507160304 | 68 | 285 | 2.0 | 2.0 | 0.00 | 0.00 | 0.00 | 65 | 1017.4 |
| 20260507155759 | 69 | 249 | 3.0 | 4.0 | 0.00 | 0.00 | 0.00 | 65 | 1017.4 |
| 20260507155256 | 67 | 280 | 0.0 | 1.0 | 0.00 | 0.00 | 0.00 | 67 | 1017.3 |
| 20260507154752 | 66 | 306 | 0.0 | 1.0 | 0.00 | 0.00 | 0.00 | 68 | 1017.4 |
| 20260507154250 | 66 | 6 | 0.0 | 0.0 | 0.00 | 0.00 | 0.00 | 67 | 1017.3 |
| 20260507153746 | 65 | 290 | 1.0 | 1.0 | 0.00 | 0.00 | 0.00 | 68 | 1017.5 |
| 20260507153243 | 65 | 308 | 1.0 | 1.0 | 0.00 | 0.00 | 0.00 | 69 | 1017.3 |
| 20260507152740 | 65 | 312 | 1.0 | 1.0 | 0.00 | 0.00 | 0.00 | 71 | 1017.3 |
| 20260507152236 | 64 | 280 | 1.0 | 1.0 | 0.00 | 0.00 | 0.00 | 72 | 1017.4 |
| 20260507151732 | 63 | 271 | 1.0 | 1.0 | 0.00 | 0.00 | 0.00 | 72 | 1017.5 |
| 20260507151228 | 64 | 339 | 1.0 | 1.0 | 0.00 | 0.00 | 0.00 | 71 | 1017.6 |
| 20260507150726 | 64 | 25 | 0.0 | 0.0 | 0.00 | 0.00 | 0.00 | 73 | 1017.4 |
| 20260507150222 | 64 | 25 | 0.0 | 0.0 | 0.00 | 0.00 | 0.00 | 74 | 1017.6 |
| 20260507145718 | 63 | 25 | 0.0 | 0.0 | 0.00 | 0.00 | 0.00 | 75 | 1017.3 |
| 20260507145215 | 62 | 27 | 0.0 | 0.0 | 0.00 | 0.00 | 0.00 | 75 | 1017.4 |
| 20260507144712 | 61 | 12 | 0.0 | 0.0 | 0.00 | 0.00 | 0.00 | 77 | 1017.4 |
| 20260507144210 | 61 | 12 | 0.0 | 0.0 | 0.00 | 0.00 | 0.00 | 79 | 1017.4 |
| 20260507143706 | 60 | 275 | 0.0 | 0.0 | 0.00 | 0.00 | 0.00 | 80 | 1017.4 |
| 20260507143203 | 60 | 283 | 1.0 | 1.0 | 0.00 | 0.00 | 0.00 | 80 | 1017.5 |
| 20260507142659 | 59 | 280 | 1.0 | 1.0 | 0.00 | 0.00 | 0.00 | 81 | 1017.7 |
| 20260507142155 | 59 | 279 | 0.0 | 0.0 | 0.00 | 0.00 | 0.00 | 82 | 1017.4 |
| 20260507141652 | 58 | 280 | 0.0 | 0.0 | 0.00 | 0.00 | 0.00 | 83 | 1017.3 |
| 20260507141149 | 58 | 281 | 1.0 | 1.0 | 0.00 | 0.00 | 0.00 | 83 | 1017.3 |
| 20260507140645 | 58 | 281 | 0.0 | 0.0 | 0.00 | 0.00 | 0.00 | 84 | 1017.3 |
| 20260507140143 | 58 | 283 | 0.0 | 1.0 | 0.00 | 0.00 | 0.00 | 84 | 1017.0 |
| 20260507135640 | 57 | 283 | 0.0 | 0.0 | 0.00 | 0.00 | 0.00 | 85 | 1016.9 |
| 20260507135137 | 57 | 283 | 0.0 | 0.0 | 0.00 | 0.00 | 0.00 | 86 | 1017.0 |
| 20260507134633 | 57 | 283 | 0.0 | 0.0 | 0.00 | 0.00 | 0.00 | 86 | 1017.2 |
| 20260507134130 | 57 | 275 | 1.0 | 1.0 | 0.00 | 0.00 | 0.00 | 86 | 1017.1 |
| 20260507133626 | 57 | 293 | 0.0 | 0.0 | 0.00 | 0.00 | 0.00 | 85 | 1016.8 |
| 20260507133123 | 57 | 292 | 0.0 | 0.0 | 0.00 | 0.00 | 0.00 | 85 | 1016.9 |
| 20260507132620 | 57 | 291 | 0.0 | 1.0 | 0.00 | 0.00 | 0.00 | 85 | 1017.2 |
| 20260507132116 | 56 | 2 | 0.0 | 0.0 | 0.00 | 0.00 | 0.00 | 85 | 1016.9 |
| 20260507131613 | 56 | 2 | 0.0 | 0.0 | 0.00 | 0.00 | 0.00 | 84 | 1016.9 |
| 20260507131111 | 56 | 2 | 0.0 | 0.0 | 0.00 | 0.00 | 0.00 | 84 | 1016.8 |
| 20260507130607 | 56 | 2 | 0.0 | 0.0 | 0.00 | 0.00 | 0.00 | 84 | 1016.7 |
| 20260507130106 | 56 | 2 | 0.0 | 0.0 | 0.00 | 0.00 | 0.00 | 84 | 1016.5 |
| 20260507125604 | 56 | 2 | 0.0 | 0.0 | 0.00 | 0.00 | 0.00 | 84 | 1016.7 |
| 20260507125101 | 56 | 2 | 0.0 | 0.0 | 0.00 | 0.00 | 0.00 | 84 | 1016.7 |
| 20260507124557 | 56 | 2 | 0.0 | 0.0 | 0.00 | 0.00 | 0.00 | 83 | 1016.7 |
| 20260507124055 | 56 | 40 | 0.0 | 0.0 | 0.00 | 0.00 | 0.00 | 83 | 1016.5 |
| 20260507123553 | 56 | 40 | 0.0 | 0.0 | 0.00 | 0.00 | 0.00 | 82 | 1016.7 |
| 20260507123050 | 57 | 40 | 0.0 | 0.0 | 0.00 | 0.00 | 0.00 | 82 | 1016.6 |
| 20260507122545 | 57 | 40 | 0.0 | 0.0 | 0.00 | 0.00 | 0.00 | 82 | 1016.7 |
| 20260507122041 | 57 | 40 | 0.0 | 0.0 | 0.00 | 0.00 | 0.00 | 82 | 1016.7 |
| 20260507121537 | 57 | 40 | 0.0 | 0.0 | 0.00 | 0.00 | 0.00 | 82 | 1016.5 |
| 20260507121033 | 57 | 40 | 0.0 | 0.0 | 0.00 | 0.00 | 0.00 | 82 | 1016.6 |
| 20260507120529 | 57 | 41 | 0.0 | 0.0 | 0.00 | 0.00 | 0.00 | 82 | 1016.5 |
| 20260507120026 | 57 | 41 | 0.0 | 0.0 | 0.00 | 0.00 | 0.00 | 82 | 1016.6 |
| 20260507115522 | 58 | 42 | 0.0 | 0.0 | 0.00 | 0.00 | 0.00 | 82 | 1016.4 |
| 20260507115018 | 58 | 48 | 0.0 | 0.0 | 0.00 | 0.00 | 0.00 | 82 | 1016.6 |
| 20260507114514 | 58 | 51 | 0.0 | 0.0 | 0.00 | 0.00 | 0.00 | 82 | 1016.5 |
| 20260507114012 | 58 | 51 | 0.0 | 0.0 | 0.00 | 0.00 | 0.00 | 82 | 1016.7 |
| 20260507113509 | 58 | 51 | 0.0 | 0.0 | 0.00 | 0.00 | 0.00 | 82 | 1016.6 |
| 20260507113006 | 58 | 51 | 0.0 | 0.0 | 0.00 | 0.00 | 0.00 | 83 | 1016.5 |
| 20260507112503 | 58 | 342 | 0.0 | 0.0 | 0.00 | 0.00 | 0.00 | 83 | 1016.8 |
| 20260507112000 | 58 | 336 | 0.0 | 0.0 | 0.00 | 0.00 | 0.00 | 83 | 1016.7 |
| 20260507111459 | 58 | 336 | 0.0 | 0.0 | 0.00 | 0.00 | 0.00 | 83 | 1016.6 |
| 20260507110953 | 59 | 336 | 0.0 | 0.0 | 0.00 | 0.00 | 0.00 | 83 | 1016.7 |
| 20260507110450 | 58 | 335 | 0.0 | 0.0 | 0.00 | 0.00 | 0.00 | 83 | 1016.7 |
| 20260507105946 | 58 | 334 | 0.0 | 0.0 | 0.00 | 0.00 | 0.00 | 83 | 1016.7 |
| 20260507105443 | 58 | 334 | 0.0 | 0.0 | 0.00 | 0.00 | 0.00 | 83 | 1016.6 |
| 20260507104940 | 58 | 334 | 0.0 | 0.0 | 0.00 | 0.00 | 0.00 | 83 | 1016.9 |
| 20260507104437 | 58 | 333 | 0.0 | 0.0 | 0.00 | 0.00 | 0.00 | 83 | 1016.6 |
| 20260507103933 | 58 | 333 | 0.0 | 0.0 | 0.00 | 0.00 | 0.00 | 82 | 1016.6 |
| 20260507103430 | 58 | 20 | 0.0 | 0.0 | 0.00 | 0.00 | 0.00 | 82 | 1016.6 |
| 20260507102926 | 58 | 21 | 0.0 | 0.0 | 0.00 | 0.00 | 0.00 | 81 | 1016.7 |
| 20260507102423 | 58 | 21 | 0.0 | 0.0 | 0.00 | 0.00 | 0.00 | 81 | 1016.7 |
| 20260507101919 | 58 | 21 | 0.0 | 0.0 | 0.00 | 0.00 | 0.00 | 80 | 1016.7 |
| 20260507101414 | 58 | 21 | 0.0 | 0.0 | 0.00 | 0.00 | 0.00 | 79 | 1016.8 |
| 20260507100911 | 59 | 21 | 0.0 | 0.0 | 0.00 | 0.00 | 0.00 | 79 | 1016.8 |
| 20260507100409 | 59 | 21 | 0.0 | 0.0 | 0.00 | 0.00 | 0.00 | 79 | 1016.8 |
| 20260507095907 | 59 | 21 | 0.0 | 0.0 | 0.00 | 0.00 | 0.00 | 79 | 1016.7 |
| 20260507095403 | 59 | 21 | 0.0 | 0.0 | 0.00 | 0.00 | 0.00 | 79 | 1016.7 |
| 20260507094901 | 59 | 16 | 0.0 | 0.0 | 0.00 | 0.00 | 0.00 | 78 | 1016.6 |
| 20260507094357 | 59 | 16 | 0.0 | 0.0 | 0.00 | 0.00 | 0.00 | 78 | 1016.7 |
| 20260507093854 | 60 | 16 | 0.0 | 0.0 | 0.00 | 0.00 | 0.00 | 78 | 1016.6 |
| 20260507093352 | 60 | 18 | 0.0 | 0.0 | 0.00 | 0.00 | 0.00 | 77 | 1016.8 |
| 20260507092850 | 60 | 18 | 0.0 | 0.0 | 0.00 | 0.00 | 0.00 | 77 | 1016.9 |
| 20260507092346 | 60 | 18 | 0.0 | 0.0 | 0.00 | 0.00 | 0.00 | 78 | 1016.8 |
| 20260507091843 | 61 | 23 | 1.0 | 1.0 | 0.00 | 0.00 | 0.00 | 78 | 1016.8 |
| 20260507091339 | 62 | 26 | 0.0 | 0.0 | 0.00 | 0.00 | 0.00 | 77 | 1017.0 |
| 20260507090835 | 62 | 352 | 0.0 | 0.0 | 0.00 | 0.00 | 0.00 | 75 | 1016.7 |
| 20260507090331 | 62 | 273 | 0.0 | 0.0 | 0.00 | 0.00 | 0.00 | 75 | 1016.9 |
| 20260507085828 | 62 | 273 | 0.0 | 0.0 | 0.00 | 0.00 | 0.00 | 75 | 1016.8 |
| 20260507085325 | 63 | 273 | 0.0 | 1.0 | 0.00 | 0.00 | 0.00 | 76 | 1017.0 |
| 20260507084823 | 63 | 278 | 1.0 | 2.0 | 0.00 | 0.00 | 0.00 | 76 | 1016.8 |
| 20260507084319 | 62 | 275 | 0.0 | 0.0 | 0.00 | 0.00 | 0.00 | 75 | 1016.9 |
| 20260507083816 | 62 | 269 | 0.0 | 0.0 | 0.00 | 0.00 | 0.00 | 75 | 1017.0 |
| 20260507083313 | 62 | 268 | 0.0 | 1.0 | 0.00 | 0.00 | 0.00 | 75 | 1017.1 |
| 20260507082809 | 62 | 281 | 0.0 | 0.0 | 0.00 | 0.00 | 0.00 | 76 | 1016.9 |
| 20260507082306 | 62 | 284 | 0.0 | 0.0 | 0.00 | 0.00 | 0.00 | 76 | 1017.0 |
| 20260507081802 | 62 | 284 | 0.0 | 0.0 | 0.00 | 0.00 | 0.00 | 75 | 1017.1 |
| 20260507081258 | 62 | 283 | 0.0 | 0.0 | 0.00 | 0.00 | 0.00 | 75 | 1017.1 |
| 20260507080755 | 62 | 283 | 0.0 | 0.0 | 0.00 | 0.00 | 0.00 | 74 | 1016.8 |
| 20260507080251 | 62 | 283 | 0.0 | 0.0 | 0.00 | 0.00 | 0.00 | 74 | 1017.1 |
| 20260507075746 | 62 | 280 | 0.0 | 0.0 | 0.00 | 0.00 | 0.00 | 75 | 1016.9 |
| 20260507075242 | 62 | 280 | 0.0 | 0.0 | 0.00 | 0.00 | 0.00 | 74 | 1017.0 |
| 20260507074739 | 63 | 280 | 0.0 | 0.0 | 0.00 | 0.00 | 0.00 | 73 | 1016.9 |
| 20260507074237 | 63 | 279 | 0.0 | 1.0 | 0.00 | 0.00 | 0.00 | 73 | 1016.9 |
| 20260507073733 | 63 | 276 | 1.0 | 1.0 | 0.00 | 0.00 | 0.00 | 73 | 1017.0 |
| 20260507073230 | 62 | 291 | 0.0 | 0.0 | 0.00 | 0.00 | 0.00 | 74 | 1017.0 |
| 20260507072728 | 63 | 291 | 0.0 | 0.0 | 0.00 | 0.00 | 0.00 | 75 | 1017.0 |
| 20260507072225 | 63 | 305 | 0.0 | 0.0 | 0.00 | 0.00 | 0.00 | 75 | 1017.1 |
| 20260507071723 | 63 | 305 | 0.0 | 0.0 | 0.00 | 0.00 | 0.00 | 74 | 1017.1 |
| 20260507071219 | 63 | 305 | 0.0 | 0.0 | 0.00 | 0.00 | 0.00 | 73 | 1017.0 |
| 20260507070716 | 63 | 307 | 0.0 | 0.0 | 0.00 | 0.00 | 0.00 | 73 | 1017.1 |
| 20260507070213 | 62 | 324 | 0.0 | 0.0 | 0.00 | 0.00 | 0.00 | 75 | 1017.0 |
| 20260507065709 | 62 | 24 | 0.0 | 0.0 | 0.00 | 0.00 | 0.00 | 75 | 1017.2 |
| 20260507065206 | 62 | 24 | 0.0 | 0.0 | 0.00 | 0.00 | 0.00 | 75 | 1017.1 |
| 20260507064704 | 63 | 24 | 0.0 | 0.0 | 0.00 | 0.00 | 0.00 | 74 | 1017.2 |
| 20260507064202 | 63 | 24 | 0.0 | 0.0 | 0.00 | 0.00 | 0.00 | 74 | 1017.1 |
| 20260507063659 | 63 | 24 | 0.0 | 0.0 | 0.00 | 0.00 | 0.00 | 73 | 1017.1 |
| 20260507063156 | 63 | 24 | 0.0 | 0.0 | 0.00 | 0.00 | 0.00 | 72 | 1017.1 |
| 20260507062653 | 63 | 24 | 0.0 | 0.0 | 0.00 | 0.00 | 0.00 | 71 | 1017.0 |
| 20260507062150 | 64 | 24 | 0.0 | 0.0 | 0.00 | 0.00 | 0.00 | 70 | 1017.0 |
| 20260507061648 | 64 | 24 | 0.0 | 0.0 | 0.00 | 0.00 | 0.00 | 69 | 1017.1 |
| 20260507061146 | 64 | 24 | 0.0 | 0.0 | 0.00 | 0.00 | 0.00 | 68 | 1017.0 |
| 20260507060644 | 64 | 60 | 0.0 | 0.0 | 0.00 | 0.00 | 0.00 | 68 | 1017.0 |
| 20260507060140 | 64 | 54 | 0.0 | 0.0 | 0.00 | 0.00 | 0.00 | 68 | 1017.1 |
| 20260507055635 | 64 | 57 | 0.0 | 0.0 | 0.00 | 0.00 | 0.00 | 67 | 1017.1 |
| 20260507055132 | 65 | 57 | 0.0 | 0.0 | 0.00 | 0.00 | 0.00 | 67 | 1017.0 |
| 20260507054628 | 65 | 55 | 0.0 | 0.0 | 0.00 | 0.00 | 0.00 | 67 | 1017.1 |
| 20260507054125 | 64 | 60 | 0.0 | 1.0 | 0.00 | 0.00 | 0.00 | 68 | 1016.9 |
| 20260507053623 | 64 | 15 | 0.0 | 0.0 | 0.00 | 0.00 | 0.00 | 68 | 1016.8 |
| 20260507053121 | 65 | 15 | 0.0 | 0.0 | 0.00 | 0.00 | 0.00 | 67 | 1016.8 |
| 20260507052619 | 65 | 15 | 0.0 | 0.0 | 0.00 | 0.00 | 0.00 | 66 | 1016.8 |
| 20260507052115 | 66 | 15 | 0.0 | 0.0 | 0.00 | 0.00 | 0.00 | 66 | 1016.8 |
| 20260507051613 | 66 | 15 | 0.0 | 0.0 | 0.00 | 0.00 | 0.00 | 66 | 1017.0 |
| 20260507051109 | 66 | 260 | 0.0 | 0.0 | 0.00 | 0.00 | 0.00 | 67 | 1017.0 |
| 20260507050606 | 66 | 255 | 0.0 | 0.0 | 0.00 | 0.00 | 0.00 | 68 | 1017.0 |
| 20260507045559 | 66 | 251 | 0.0 | 0.0 | 0.00 | 0.00 | 0.00 | 68 | 1016.9 |
| 20260507045056 | 67 | 251 | 0.0 | 0.0 | 0.00 | 0.00 | 0.00 | 67 | 1016.8 |
| 20260507044553 | 67 | 251 | 0.0 | 0.0 | 0.00 | 0.00 | 0.00 | 66 | 1016.9 |
| 20260507044050 | 67 | 251 | 0.0 | 0.0 | 0.00 | 0.00 | 0.00 | 65 | 1016.8 |
| 20260507043545 | 67 | 251 | 0.0 | 0.0 | 0.00 | 0.00 | 0.00 | 65 | 1016.7 |
| 20260507043043 | 67 | 251 | 0.0 | 0.0 | 0.00 | 0.00 | 0.00 | 65 | 1016.8 |
| 20260507042539 | 67 | 251 | 0.0 | 0.0 | 0.00 | 0.00 | 0.00 | 65 | 1016.5 |
| 20260507042035 | 68 | 251 | 0.0 | 0.0 | 0.00 | 0.00 | 0.00 | 66 | 1016.6 |
| 20260507041532 | 68 | 251 | 0.0 | 0.0 | 0.00 | 0.00 | 0.00 | 65 | 1016.6 |
| 20260507041029 | 68 | 250 | 0.0 | 0.0 | 0.00 | 0.00 | 0.00 | 65 | 1016.4 |
| 20260507040525 | 68 | 250 | 0.0 | 0.0 | 0.00 | 0.00 | 0.00 | 65 | 1016.6 |
| 20260507040021 | 68 | 250 | 0.0 | 0.0 | 0.00 | 0.00 | 0.00 | 65 | 1016.5 |
| 20260507035518 | 69 | 250 | 0.0 | 0.0 | 0.00 | 0.00 | 0.00 | 64 | 1016.5 |
| 20260507035014 | 69 | 250 | 0.0 | 0.0 | 0.00 | 0.00 | 0.00 | 64 | 1016.3 |
| 20260507034511 | 69 | 250 | 0.0 | 0.0 | 0.00 | 0.00 | 0.00 | 63 | 1016.2 |
| 20260507034009 | 69 | 250 | 0.0 | 0.0 | 0.00 | 0.00 | 0.00 | 62 | 1016.3 |
| 20260507033507 | 69 | 250 | 0.0 | 0.0 | 0.00 | 0.00 | 0.00 | 61 | 1016.2 |
| 20260507033004 | 69 | 250 | 0.0 | 0.0 | 0.00 | 0.00 | 0.00 | 60 | 1016.1 |
| 20260507032501 | 70 | 250 | 0.0 | 0.0 | 0.00 | 0.00 | 0.00 | 60 | 1016.1 |
| 20260507031956 | 70 | 250 | 0.0 | 0.0 | 0.00 | 0.00 | 0.00 | 59 | 1016.1 |
| 20260507031453 | 70 | 250 | 0.0 | 0.0 | 0.00 | 0.00 | 0.00 | 58 | 1015.9 |
| 20260507030950 | 71 | 250 | 0.0 | 0.0 | 0.00 | 0.00 | 0.00 | 58 | 1015.9 |
| 20260507030447 | 71 | 250 | 0.0 | 0.0 | 0.00 | 0.00 | 0.00 | 57 | 1016.0 |
| 20260507025944 | 72 | 250 | 0.0 | 0.0 | 0.00 | 0.00 | 0.00 | 55 | 1015.6 |
| 20260507025441 | 72 | 250 | 0.0 | 0.0 | 0.00 | 0.00 | 0.00 | 54 | 1015.9 |
| 20260507024939 | 73 | 250 | 0.0 | 0.0 | 0.00 | 0.00 | 0.00 | 53 | 1015.8 |
| 20260507024436 | 73 | 250 | 0.0 | 0.0 | 0.00 | 0.00 | 0.00 | 52 | 1016.0 |
| 20260507023932 | 74 | 249 | 2.0 | 2.0 | 0.00 | 0.00 | 0.00 | 52 | 1016.0 |
| 20260507023429 | 74 | 292 | 1.0 | 1.0 | 0.00 | 0.00 | 0.00 | 50 | 1015.9 |
| 20260507022926 | 75 | 14 | 0.0 | 0.0 | 0.00 | 0.00 | 0.00 | 48 | 1015.5 |
| 20260507022423 | 75 | 14 | 0.0 | 0.0 | 0.00 | 0.00 | 0.00 | 46 | 1015.5 |
| 20260507021919 | 75 | 14 | 0.0 | 0.0 | 0.00 | 0.00 | 0.00 | 46 | 1015.6 |
| 20260507021414 | 76 | 14 | 1.0 | 1.0 | 0.00 | 0.00 | 0.00 | 45 | 1015.7 |
| 20260507020912 | 76 | 295 | 0.0 | 0.0 | 0.00 | 0.00 | 0.00 | 43 | 1015.5 |
| 20260507020409 | 76 | 273 | 1.0 | 1.0 | 0.00 | 0.00 | 0.00 | 43 | 1015.7 |
| 20260507015906 | 76 | 283 | 1.0 | 2.0 | 0.00 | 0.00 | 0.00 | 44 | 1015.6 |
| 20260507015404 | 76 | 258 | 3.0 | 4.0 | 0.00 | 0.00 | 0.00 | 44 | 1015.8 |
| 20260507014900 | 76 | 260 | 4.0 | 5.0 | 0.00 | 0.00 | 0.00 | 43 | 1015.7 |